Location: Alpha Ridge Park
(39.3209°N, 76.9128°W)
Time: 10:41:56
(UTC-04:00)

Vanguard 2 Rocket - Pass Details

Date: 29 May 2019
Orbit: 554 x 3326 km, 32.9° (Epoch: 19 June)

Event Time Altitude Azimuth Distance (km) Brightness Sun altitude
Rises 03:40:12 0° 219° (SW) 6,907 - -19.1°
Reaches altitude 10° 03:44:59 10° 213° (SSW) 6,090 - -18.5°
Exits shadow 03:49:15 20° 206° (SSW) 5,411 10.2 -18.0°
Maximum altitude 04:03:03 43° 150° (SSE) 4,066 10.0 -16.2°
Drops below altitude 10° 04:18:49 10° 87° (E) 5,402 11.6 -14.1°
Sets 04:22:41 0° 81° (E) 6,103 12.1 -13.6°
